Regional Weather Roundup
Issued by NWS Goodland, KS

Home | Current Version | Previous Version | Graphics & Text | Print | Product List | Glossary On
Versions: 1 2 3 4 5 6 7 8 9 10 11 12 13 14 15 16 17 18 19 20 21 22 23 24 25 26 27 28 29 30 31 32 33 34 35 36 37 38 39 40 41 42 43 44 45 46 47 48 49 50
000
ASUS43 KGLD 301059
RWRGLD

GOODLAND FORECAST AREA HOURLY WEATHER ROUNDUP
NATIONAL WEATHER SERVICE GOODLAND KS
500 AM MDT THU OCT 30 2014

...OFFICIAL OBSERVATIONS...

CITY           SKY/WX    TMP DP  RH WIND       PRES   REMARKS
GOODLAND KS    CLEAR     39  26  59 NW10      30.22R
HILL CITY KS   CLEAR     48  27  44 NW14      30.13R
IMPERIAL NEB   CLEAR     39  25  57 W10       30.20R
MCCOOK NEB     CLEAR     42  25  50 W9        30.16R
AKRON CO       CLEAR     37  24  59 W5        30.27R
BURLINGTON CO  CLEAR     33  23  66 W8        30.24R
LIMON CO       CLEAR     34  23  64 N10       30.29R
$$

...UNOFFICIAL OBSERVATIONS...

CITY           SKY/WX    TMP DP  RH WIND       PRES   REMARKS
COLBY KS       CLEAR     43  30  61 NW10      30.19R
NORTON KS      CLEAR     45  25  45 NW10      30.11R
SHARON SPRINGS   N/A     42  28  58 N10         N/A
TRIBUNE KS     CLEAR     46  32  57 NW14      30.21
TRENTON NEB      N/A     42  32  68 NW10        N/A
$$



USA.gov is the U.S. government's official web portal to all federal, state and local government web resources and services.